Regional Weather Roundup
Issued by NWS Nashville, TN

Home | Current Version | Previous Version | Text Only | Print | Product List | Glossary On
Versions: 1 2 3 4 5 6 7 8 9 10 11 12 13 14 15 16 17 18 19 20 21 22 23 24 25 26 27 28
000
ASUS44 KOHX 272310
RWROHX
MIDDLE TENNESSEE HOURLY WEATHER ROUNDUP
NATIONAL WEATHER SERVICE NASHVILLE TN
600 PM CDT WED JUL 27 2016

NOTE: "FAIR" INDICATES FEW OR NO CLOUDS BELOW 12,000 FEET WITH
NO SIGNIFICANT WEATHER AND/OR OBSTRUCTIONS TO VISIBILITY.

* THESE REPORTS ARE NOT UNDER NWS QUALITY CONTROL AND MAY NOT
  REPORT WEATHER SUCH AS PRECIPITATION AND FOG.


TNZ005>011-023>034-057-059-062>066-078-080-280000
...NORTHERN MIDDLE TENNESSEE...

CITY           SKY/WX    TMP DP  RH WIND       PRES   REMARKS
CLARKSVILLE    PTSUNNY   83  77  82 CALM      29.88F HX  92
CROSSVILLE     PTSUNNY   81  74  79 VRB3      30.01F
NASHVILLE      MOSUNNY   91  69  48 S12       29.89F HX  96
SMYRNA         SUNNY     93  72  50 SW13      29.89F HX 100
SPARTA         SUNNY     90  77  66 CALM      29.93F HX 102
$$
TNZ056-058-060-061-075>077-079-093>097-280000
...SOUTHERN MIDDLE TENNESSEE...

CITY           SKY/WX    TMP DP  RH WIND       PRES   REMARKS
COLUMBIA       SUNNY     93  73  52 S12       29.90F HX 102
FAYETTEVILLE   SUNNY     90  70  51 S12G17    29.96F HX  95
MCMINNVILLE    SUNNY     91  75  59 SW10      29.94F HX 102
SHELBYVILLE    SUNNY     91  75  59 S13       29.94F HX 102
TULLAHOMA      SUNNY     88  70  55 S10       29.97F HX  92
WINCHESTER     SUNNY     91  70  49 S9        29.97F HX  97
$$


...KEY TO REMARKS...
VSB - VISIBILITY IN MILES
WCI - WIND CHILL INDEX
HX  - HEAT INDEX





USA.gov is the U.S. government's official web portal to all federal, state and local government web resources and services.